Weather Roundup
Issued by NWS

Home | Current Version | Previous Version | Text Only | Print | Product List | Glossary On
Versions: 1 2 3 4 5 6 7 8 9 10 11 12 13 14 15 16 17 18 19 20 21 22 23 24 25 26 27 28 29 30 31 32 33 34 35 36 37 38 39 40 41 42 43 44 45 46 47 48 49 50
000
NZUS93 KARX 282310
HRRWXR

CURRENT HOURLY OBSERVATIONS ACROSS
MUCH OF THE UPPER MISSISSIPPI VALLEY
NATIONAL WEATHER SERVICE LA CROSSE WI
600 PM CDT TUE MAR 28 2017


...SOUTHEAST MINNESOTA...


CITY           SKY/WX    TMP DP  RH WIND       PRES   REMARKS
ROCHESTER      SUNNY     56  37  49 E9        30.13R
ROCHESTER/MAYO FAIR      58  37  45 CALM      30.13F
WINONA         SUNNY     59  37  44 CALM      30.14R
AUSTIN         SUNNY     57  39  51 E10       30.12R
ALBERT LEA     SUNNY     57  34  41 E9        30.12R
DODGE CENTER   SUNNY     57  37  47 E9        30.13S
PRESTON        SUNNY     57  34  42 E7        30.13F
OWATONNA       SUNNY     59  36  41 E9        30.13R
FARIBAULT      SUNNY     61  36  39 E9        30.13S
$$

...ELSEWHERE IN MINNESOTA...


CITY           SKY/WX    TMP DP  RH WIND       PRES   REMARKS
MINNEAPOLIS    PTSUNNY   64  30  27 NE3       30.12S
INTNL FALLS    SUNNY     52  27  38 E6        30.19S
DULUTH         MOSUNNY   54  32  43 SE6       30.14S
RED WING       SUNNY     63  27  25 S5        30.12S
REDWOOD FALLS  SUNNY     62  30  29 E8        30.11S
MANKATO        SUNNY     60  32  34 SE12      30.12S
WORTHINGTON    MOSUNNY   56  37  49 E12       30.10S
FAIRMONT       SUNNY     58  39  49 E13       30.10S
$$

...SOUTHWEST WISCONSIN...


CITY           SKY/WX    TMP DP  RH WIND       PRES   REMARKS
LA CROSSE      SUNNY     61  38  42 W6        30.13R
PRAIRIE DU CHI SUNNY     55  37  50 SE6       30.13S
BOSCOBEL       SUNNY     59  36  42 VRB5      30.14R
LONE ROCK      SUNNY     59  38  45 E5        30.14R
PLATTEVILLE    SUNNY     53  43  69 S3        30.14S
FORT MC COY    SUNNY     60  32  35 E7        30.15R
CAMP DOUGLAS   MOSUNNY   59  36  41 E5        30.13S
MAUSTON-NEW LI CLEAR     59  36  42 E5        30.13R
VIROQUA        FAIR      58  35  42 CALM      30.14R
WIS DELLS      SUNNY     56  32  39 E7        30.14R
$$

...ELSEWHERE IN WISCONSIN...


CITY           SKY/WX    TMP DP  RH WIND       PRES   REMARKS
MILWAUKEE      FOG       37  33  85 N9        30.19R VSB 1   WCI  30
MADISON        MOSUNNY   55  37  50 NE13      30.14R
GREEN BAY      SUNNY     50  39  66 NE7       30.19R
EAU CLAIRE     SUNNY     61  22  22 NE7       30.13R
BLACK RVR FLS  FAIR      62  23  22 NE3       30.13R
MEDFORD        SUNNY     55  34  46 S5        30.15R
WAUSAU         SUNNY     58  26  29 SW3       30.13S
WIS RAPIDS     SUNNY     59  29  31 E7        30.15S
MARSHFIELD     SUNNY     56  32  40 CALM      30.14S
RICE LAKE      SUNNY     60  23  24 CALM      30.15F
$$

...NORTHEAST IOWA...


CITY           SKY/WX    TMP DP  RH WIND       PRES   REMARKS
WATERLOO       SUNNY     58  38  47 E12       30.11R
DUBUQUE        SUNNY     49  39  68 NE5       30.14S
DECORAH        SUNNY     57  37  47 E9        30.12S
MASON CITY     SUNNY     57  36  45 E10       30.12R
CHARLES CITY   SUNNY     57  37  47 E12       30.12S
OELWEIN        SUNNY     55  39  54 E10       30.13R
$$

...ELSEWHERE IN IOWA...


CITY           SKY/WX    TMP DP  RH WIND       PRES   REMARKS
DES MOINES     CLOUDY    52  42  69 NE8       30.10S
IOWA CITY      CLOUDY    53  43  68 E6        30.14R
FORT DODGE     PTSUNNY   55  43  62 E8        30.10S
MARSHALLTOWN   MOSUNNY   52  44  74 SE8       30.11S
CEDAR RAPIDS   PTSUNNY   51  44  77 E8        30.11S
$$

...NORTHERN ILLINOIS...


CITY           SKY/WX    TMP DP  RH WIND       PRES   REMARKS
CHICAGO-OHARE  PTSUNNY   44  36  73 NE9       30.16R
CHICAGO-MIDWAY PTSUNNY   45  37  73 NE10G22   30.16R
MOLINE         CLOUDY    51  41  68 E8        30.13R
ROCKFORD       PTSUNNY   55  40  56 E5        30.14S
PEORIA         CLOUDY    52  43  71 NE8       30.12R
$$

NOTE: "FAIR" INDICATES FEW OR NO CLOUDS BELOW 12,000 FEET WITH NO
SIGNIFICANT WEATHER AND/OR OBSTRUCTIONS TO VISIBILITY. WIND
SPEEDS ARE IN MILES-PER-HOUR.




USA.gov is the U.S. government's official web portal to all federal, state and local government web resources and services.